| time (UTC) | temp F | wind direction | speed knots | gust knots | rain 1hr in | rain 24hr in | rain mn in | humidity % | barometer mb |
| 20260510061250 | 47 | 64 | 0.9 | 5.2 | 0.00 | 0.24 | 0.00 | 76 | 1009.0 |
| 20260510061050 | 47 | 28 | 0.9 | 5.2 | 0.00 | 0.24 | 0.00 | 78 | 1009.0 |
| 20260510060849 | 47 | 29 | 0.0 | 1.7 | 0.00 | 0.24 | 0.00 | 78 | 1008.9 |
| 20260510060649 | 47 | 29 | 0.0 | 1.7 | 0.00 | 0.24 | 0.00 | 78 | 1009.0 |
| 20260510060449 | 47 | 29 | 0.0 | 1.7 | 0.00 | 0.24 | 0.00 | 78 | 1008.9 |
| 20260510060248 | 47 | 29 | 0.0 | 1.7 | 0.00 | 0.24 | 0.00 | 78 | 1008.9 |
| 20260510060048 | 47 | 29 | 0.0 | 1.7 | 0.00 | 0.24 | 0.00 | 77 | 1008.9 |
| 20260510055848 | 47 | 29 | 0.0 | 1.7 | 0.00 | 0.24 | 0.00 | 77 | 1008.8 |
| 20260510055648 | 47 | 29 | 0.0 | 1.7 | 0.00 | 0.24 | 0.00 | 77 | 1008.9 |
| 20260510055447 | 47 | 29 | 0.0 | 1.7 | 0.00 | 0.24 | 0.00 | 77 | 1008.9 |
| 20260510055247 | 47 | 29 | 0.0 | 1.7 | 0.00 | 0.24 | 0.00 | 77 | 1008.8 |
| 20260510055047 | 47 | 0 | 0.0 | 1.7 | 0.00 | 0.24 | 0.00 | 76 | 1008.8 |
| 20260510054846 | 47 | 29 | 0.0 | 1.7 | 0.00 | 0.24 | 0.00 | 76 | 1008.7 |
| 20260510054646 | 47 | 28 | 0.0 | 1.7 | 0.00 | 0.24 | 0.00 | 76 | 1008.5 |
| 20260510054446 | 48 | 0 | 0.0 | 1.7 | 0.00 | 0.24 | 0.00 | 76 | 1008.6 |
| 20260510054245 | 48 | 29 | 0.0 | 1.7 | 0.00 | 0.24 | 0.00 | 76 | 1008.6 |
| 20260510054045 | 48 | 29 | 0.0 | 1.7 | 0.00 | 0.24 | 0.00 | 76 | 1008.6 |
| 20260510053845 | 47 | 0 | 0.0 | 0.0 | 0.00 | 0.24 | 0.00 | 77 | 1008.6 |
| 20260510053645 | 48 | 0 | 0.0 | 0.0 | 0.00 | 0.24 | 0.00 | 76 | 1008.5 |
| 20260510053444 | 48 | 0 | 0.0 | 0.0 | 0.00 | 0.24 | 0.00 | 77 | 1008.6 |
| 20260510053244 | 48 | 0 | 0.0 | 0.0 | 0.00 | 0.24 | 0.00 | 77 | 1008.5 |
| 20260510053044 | 48 | 0 | 0.0 | 0.0 | 0.00 | 0.24 | 0.00 | 76 | 1008.5 |
| 20260510052843 | 48 | 0 | 0.0 | 0.0 | 0.00 | 0.24 | 0.00 | 76 | 1008.4 |
| 20260510052643 | 48 | 0 | 0.0 | 0.0 | 0.00 | 0.24 | 0.00 | 76 | 1008.4 |
| 20260510052443 | 48 | 0 | 0.0 | 0.9 | 0.00 | 0.24 | 0.00 | 76 | 1008.3 |
| 20260510052242 | 48 | 0 | 0.0 | 0.9 | 0.00 | 0.24 | 0.00 | 76 | 1008.3 |
| 20260510052042 | 48 | 0 | 0.0 | 0.9 | 0.00 | 0.24 | 0.00 | 76 | 1008.4 |
| 20260510051842 | 48 | 29 | 0.0 | 1.7 | 0.00 | 0.24 | 0.00 | 76 | 1008.4 |
| 20260510051642 | 48 | 0 | 0.0 | 1.7 | 0.00 | 0.24 | 0.00 | 76 | 1008.4 |
| 20260510051441 | 48 | 29 | 0.0 | 1.7 | 0.00 | 0.24 | 0.00 | 75 | 1008.4 |
| 20260510051241 | 48 | 29 | 0.0 | 1.7 | 0.00 | 0.24 | 0.00 | 76 | 1008.4 |
| 20260510051041 | 48 | 0 | 0.0 | 1.7 | 0.00 | 0.24 | 0.00 | 75 | 1008.5 |
| 20260510050840 | 48 | 0 | 0.0 | 1.7 | 0.00 | 0.24 | 0.00 | 76 | 1008.3 |
| 20260510050640 | 48 | 29 | 0.0 | 1.7 | 0.00 | 0.24 | 0.00 | 76 | 1008.2 |
| 20260510050440 | 48 | 29 | 0.0 | 1.7 | 0.00 | 0.24 | 0.00 | 76 | 1008.4 |
| 20260510050239 | 48 | 0 | 0.0 | 1.7 | 0.00 | 0.24 | 0.00 | 76 | 1008.4 |
| 20260510050039 | 48 | 29 | 0.0 | 3.5 | 0.00 | 0.24 | 0.00 | 76 | 1008.4 |
| 20260510045839 | 48 | 29 | 0.0 | 4.3 | 0.00 | 0.24 | 0.00 | 76 | 1008.3 |
| 20260510045639 | 48 | 29 | 0.0 | 4.3 | 0.00 | 0.24 | 0.00 | 76 | 1008.3 |
| 20260510045438 | 48 | 48 | 0.0 | 4.3 | 0.00 | 0.24 | 0.00 | 76 | 1008.3 |
| 20260510045238 | 48 | 47 | 0.9 | 4.3 | 0.00 | 0.24 | 0.00 | 76 | 1008.2 |
| 20260510045038 | 48 | 347 | 0.9 | 4.3 | 0.00 | 0.24 | 0.00 | 77 | 1008.2 |
| 20260510044837 | 48 | 344 | 0.9 | 5.2 | 0.00 | 0.24 | 0.00 | 77 | 1008.1 |
| 20260510044637 | 48 | 111 | 0.9 | 5.2 | 0.00 | 0.24 | 0.00 | 77 | 1008.0 |
| 20260510044437 | 48 | 68 | 0.0 | 5.2 | 0.00 | 0.24 | 0.00 | 77 | 1007.9 |
| 20260510044236 | 49 | 41 | 0.9 | 5.2 | 0.00 | 0.24 | 0.00 | 77 | 1007.9 |
| 20260510044036 | 49 | 340 | 0.9 | 5.2 | 0.00 | 0.24 | 0.00 | 77 | 1007.9 |
| 20260510043836 | 49 | 314 | 0.0 | 3.5 | 0.00 | 0.24 | 0.00 | 77 | 1007.9 |
| 20260510043635 | 49 | 29 | 0.9 | 3.5 | 0.00 | 0.24 | 0.00 | 77 | 1008.0 |
| 20260510043435 | 49 | 360 | 0.9 | 3.5 | 0.00 | 0.24 | 0.00 | 77 | 1008.0 |
| 20260510043235 | 49 | 337 | 0.9 | 5.2 | 0.00 | 0.24 | 0.00 | 77 | 1008.0 |
| 20260510043035 | 49 | 329 | 0.9 | 5.2 | 0.00 | 0.24 | 0.00 | 78 | 1007.9 |
| 20260510042834 | 49 | 29 | 0.9 | 5.2 | 0.00 | 0.24 | 0.00 | 78 | 1007.9 |
| 20260510042634 | 50 | 355 | 0.9 | 6.1 | 0.00 | 0.24 | 0.00 | 77 | 1007.8 |
| 20260510042434 | 50 | 337 | 1.7 | 6.1 | 0.00 | 0.24 | 0.00 | 78 | 1007.7 |
| 20260510042233 | 50 | 335 | 1.7 | 6.1 | 0.00 | 0.24 | 0.00 | 78 | 1007.8 |
| 20260510042033 | 49 | 2 | 1.7 | 6.1 | 0.00 | 0.24 | 0.00 | 78 | 1007.9 |
| 20260510041833 | 49 | 3 | 1.7 | 6.1 | 0.00 | 0.24 | 0.00 | 78 | 1007.9 |
| 20260510041632 | 49 | 2 | 1.7 | 6.1 | 0.00 | 0.24 | 0.00 | 79 | 1007.9 |
| 20260510041432 | 50 | 53 | 0.9 | 5.2 | 0.00 | 0.24 | 0.00 | 79 | 1007.9 |
| 20260510041232 | 50 | 350 | 0.9 | 6.1 | 0.00 | 0.24 | 0.00 | 80 | 1007.7 |
| 20260510041032 | 50 | 348 | 0.9 | 6.1 | 0.00 | 0.24 | 0.00 | 79 | 1007.4 |
| 20260510040831 | 50 | 348 | 1.7 | 6.1 | 0.00 | 0.24 | 0.00 | 79 | 1007.3 |
| 20260510040631 | 50 | 354 | 2.6 | 8.7 | 0.00 | 0.24 | 0.00 | 79 | 1007.5 |
| 20260510040431 | 50 | 330 | 1.7 | 9.6 | 0.00 | 0.24 | 0.00 | 79 | 1007.4 |
| 20260510040230 | 50 | 318 | 1.7 | 9.6 | 0.00 | 0.24 | 0.00 | 78 | 1007.3 |
| 20260510040030 | 50 | 334 | 2.6 | 9.6 | 0.00 | 0.24 | 0.00 | 79 | 1007.2 |
| 20260510035830 | 50 | 357 | 2.6 | 9.6 | 0.00 | 0.24 | 0.24 | 79 | 1007.1 |
| 20260510035630 | 50 | 354 | 1.7 | 7.8 | 0.00 | 0.24 | 0.24 | 80 | 1007.1 |
| 20260510035429 | 50 | 29 | 1.7 | 7.8 | 0.00 | 0.24 | 0.24 | 80 | 1007.1 |
| 20260510035229 | 51 | 329 | 1.7 | 7.8 | 0.00 | 0.24 | 0.24 | 81 | 1007.1 |
| 20260510035029 | 51 | 23 | 2.6 | 7.8 | 0.00 | 0.24 | 0.24 | 81 | 1007.1 |
| 20260510034828 | 51 | 343 | 2.6 | 7.8 | 0.00 | 0.24 | 0.24 | 82 | 1007.0 |
| 20260510034628 | 51 | 6 | 2.6 | 6.1 | 0.00 | 0.24 | 0.24 | 83 | 1007.1 |
| 20260510034428 | 50 | 322 | 1.7 | 6.1 | 0.00 | 0.24 | 0.24 | 83 | 1007.2 |
| 20260510034228 | 50 | 321 | 1.7 | 5.2 | 0.00 | 0.24 | 0.24 | 84 | 1007.1 |
| 20260510034027 | 50 | 343 | 0.9 | 3.5 | 0.00 | 0.24 | 0.24 | 85 | 1006.9 |
| 20260510033827 | 50 | 337 | 0.0 | 3.5 | 0.00 | 0.24 | 0.24 | 85 | 1006.8 |
| 20260510033626 | 50 | 329 | 0.9 | 3.5 | 0.00 | 0.24 | 0.24 | 86 | 1006.7 |
| 20260510033426 | 51 | 280 | 0.9 | 3.5 | 0.00 | 0.24 | 0.24 | 86 | 1006.5 |
| 20260510033226 | 51 | 141 | 0.9 | 2.6 | 0.00 | 0.24 | 0.24 | 86 | 1006.6 |
| 20260510033026 | 51 | 100 | 0.9 | 1.7 | 0.00 | 0.24 | 0.24 | 87 | 1006.5 |
| 20260510032825 | 51 | 52 | 0.9 | 1.7 | 0.00 | 0.24 | 0.24 | 87 | 1006.5 |
| 20260510032625 | 51 | 257 | 0.0 | 1.7 | 0.00 | 0.24 | 0.24 | 88 | 1006.5 |
| 20260510032425 | 51 | 256 | 0.0 | 2.6 | 0.00 | 0.24 | 0.24 | 89 | 1006.5 |
| 20260510032224 | 51 | 256 | 0.0 | 2.6 | 0.00 | 0.24 | 0.24 | 89 | 1006.5 |
| 20260510032024 | 51 | 278 | 0.0 | 2.6 | 0.00 | 0.24 | 0.24 | 89 | 1006.5 |
| 20260510031824 | 51 | 309 | 0.9 | 2.6 | 0.00 | 0.24 | 0.24 | 90 | 1006.4 |
| 20260510031623 | 51 | 320 | 0.0 | 2.6 | 0.00 | 0.24 | 0.24 | 90 | 1006.4 |
| 20260510031423 | 51 | 95 | 0.0 | 2.6 | 0.00 | 0.24 | 0.24 | 92 | 1006.4 |
| 20260510031223 | 51 | 87 | 0.9 | 2.6 | 0.00 | 0.24 | 0.24 | 92 | 1006.4 |
| 20260510031023 | 52 | 338 | 0.9 | 3.5 | 0.00 | 0.24 | 0.24 | 93 | 1006.4 |
| 20260510030822 | 52 | 342 | 0.9 | 3.5 | 0.00 | 0.24 | 0.24 | 94 | 1006.4 |
| 20260510030622 | 52 | 354 | 0.9 | 3.5 | 0.00 | 0.24 | 0.24 | 94 | 1006.4 |
| 20260510030422 | 52 | 254 | 0.9 | 3.5 | 0.00 | 0.24 | 0.24 | 95 | 1006.4 |
| 20260510030221 | 52 | 232 | 0.9 | 3.5 | 0.00 | 0.24 | 0.24 | 95 | 1006.4 |
| 20260510030021 | 52 | 232 | 0.9 | 1.7 | 0.00 | 0.24 | 0.24 | 95 | 1006.5 |
| 20260510025821 | 52 | 232 | 0.0 | 2.6 | 0.00 | 0.24 | 0.24 | 95 | 1006.4 |
| 20260510025621 | 52 | 232 | 0.0 | 2.6 | 0.00 | 0.24 | 0.24 | 95 | 1006.4 |
| 20260510025420 | 51 | 232 | 0.0 | 2.6 | 0.00 | 0.24 | 0.24 | 95 | 1006.4 |
| 20260510025220 | 51 | 232 | 0.0 | 2.6 | 0.00 | 0.24 | 0.24 | 95 | 1006.3 |
| 20260510025020 | 51 | 232 | 0.0 | 2.6 | 0.00 | 0.24 | 0.24 | 95 | 1006.2 |
| 20260510024819 | 51 | 0 | 0.0 | 1.7 | 0.00 | 0.24 | 0.24 | 95 | 1006.2 |
| 20260510024619 | 51 | 0 | 0.0 | 1.7 | 0.00 | 0.24 | 0.24 | 95 | 1006.1 |
| 20260510024419 | 51 | 0 | 0.0 | 1.7 | 0.00 | 0.24 | 0.24 | 95 | 1006.1 |
| 20260510024218 | 51 | 232 | 0.0 | 1.7 | 0.00 | 0.24 | 0.24 | 95 | 1006.1 |
| 20260510024018 | 51 | 232 | 0.0 | 1.7 | 0.00 | 0.24 | 0.24 | 95 | 1006.1 |
| 20260510023753 | 51 | 232 | 0.0 | 0.9 | 0.00 | 0.24 | 0.24 | 95 | 1006.0 |
| 20260510023552 | 51 | 0 | 0.0 | 0.9 | 0.00 | 0.24 | 0.24 | 95 | 1006.1 |
| 20260510023352 | 51 | 232 | 0.0 | 1.7 | 0.00 | 0.24 | 0.24 | 95 | 1006.0 |
| 20260510023152 | 51 | 232 | 0.0 | 1.7 | 0.00 | 0.24 | 0.24 | 95 | 1006.0 |
| 20260510022952 | 51 | 0 | 0.0 | 1.7 | 0.00 | 0.24 | 0.24 | 95 | 1006.0 |
| 20260510022751 | 51 | 232 | 0.0 | 1.7 | 0.00 | 0.24 | 0.24 | 95 | 1006.0 |
| 20260510022551 | 51 | 232 | 0.0 | 1.7 | 0.00 | 0.24 | 0.24 | 95 | 1006.1 |
| 20260510022351 | 51 | 232 | 0.0 | 1.7 | 0.00 | 0.24 | 0.24 | 95 | 1006.1 |
| 20260510022150 | 52 | 232 | 0.0 | 1.7 | 0.00 | 0.24 | 0.24 | 95 | 1006.1 |
| 20260510021950 | 52 | 232 | 0.0 | 1.7 | 0.00 | 0.24 | 0.24 | 95 | 1006.1 |
| 20260510021750 | 52 | 232 | 0.0 | 1.7 | 0.00 | 0.24 | 0.24 | 95 | 1006.0 |
| 20260510021549 | 52 | 232 | 0.0 | 2.6 | 0.00 | 0.24 | 0.24 | 95 | 1005.9 |
| 20260510021349 | 52 | 232 | 0.9 | 3.5 | 0.00 | 0.24 | 0.24 | 95 | 1005.9 |
| 20260510021149 | 52 | 232 | 0.0 | 3.5 | 0.00 | 0.24 | 0.24 | 95 | 1005.9 |
| 20260510020948 | 52 | 232 | 0.0 | 3.5 | 0.00 | 0.24 | 0.24 | 95 | 1005.9 |
| 20260510020748 | 52 | 241 | 0.9 | 3.5 | 0.00 | 0.24 | 0.24 | 95 | 1005.8 |
| 20260510020548 | 52 | 267 | 0.9 | 3.5 | 0.00 | 0.24 | 0.24 | 94 | 1005.8 |
| 20260510020348 | 52 | 268 | 0.9 | 3.5 | 0.00 | 0.24 | 0.24 | 95 | 1005.7 |
| 20260510020147 | 52 | 246 | 0.9 | 3.5 | 0.00 | 0.24 | 0.24 | 94 | 1005.7 |
| 20260510015947 | 52 | 236 | 0.0 | 2.6 | 0.00 | 0.24 | 0.24 | 94 | 1005.7 |
| 20260510015747 | 52 | 235 | 0.0 | 2.6 | 0.00 | 0.24 | 0.24 | 94 | 1005.7 |
| 20260510015546 | 52 | 234 | 0.9 | 2.6 | 0.00 | 0.24 | 0.24 | 94 | 1005.7 |
| 20260510015346 | 52 | 224 | 0.9 | 2.6 | 0.00 | 0.24 | 0.24 | 94 | 1005.7 |
| 20260510015146 | 52 | 219 | 0.9 | 3.5 | 0.00 | 0.24 | 0.24 | 94 | 1005.7 |
| 20260510014946 | 52 | 219 | 0.9 | 3.5 | 0.00 | 0.24 | 0.24 | 94 | 1005.7 |
| 20260510014745 | 52 | 219 | 0.0 | 3.5 | 0.00 | 0.24 | 0.24 | 94 | 1005.6 |
| 20260510014545 | 52 | 219 | 0.9 | 3.5 | 0.00 | 0.24 | 0.24 | 94 | 1005.5 |
| 20260510014345 | 52 | 252 | 0.9 | 3.5 | 0.00 | 0.24 | 0.24 | 94 | 1005.5 |
| 20260510014144 | 52 | 277 | 0.0 | 2.6 | 0.00 | 0.24 | 0.24 | 94 | 1005.4 |
| 20260510013944 | 52 | 282 | 0.0 | 2.6 | 0.00 | 0.24 | 0.24 | 94 | 1005.4 |
| 20260510013744 | 52 | 260 | 0.9 | 2.6 | 0.00 | 0.24 | 0.24 | 94 | 1005.4 |
| 20260510013543 | 52 | 156 | 0.0 | 2.6 | 0.00 | 0.24 | 0.24 | 94 | 1005.3 |
| 20260510013343 | 52 | 217 | 0.0 | 3.5 | 0.00 | 0.24 | 0.24 | 93 | 1005.2 |
| 20260510013143 | 52 | 217 | 0.9 | 3.5 | 0.00 | 0.24 | 0.24 | 93 | 1005.1 |
| 20260510012942 | 52 | 217 | 0.9 | 3.5 | 0.00 | 0.24 | 0.24 | 93 | 1005.1 |
| 20260510012742 | 52 | 217 | 0.9 | 3.5 | 0.00 | 0.24 | 0.24 | 93 | 1005.0 |
| 20260510012542 | 52 | 217 | 0.0 | 3.5 | 0.00 | 0.24 | 0.24 | 93 | 1005.0 |
| 20260510012342 | 52 | 217 | 0.0 | 1.7 | 0.00 | 0.24 | 0.24 | 93 | 1005.0 |
| 20260510012141 | 53 | 217 | 0.0 | 1.7 | 0.00 | 0.24 | 0.24 | 93 | 1005.0 |
| 20260510011941 | 53 | 217 | 0.0 | 3.5 | 0.00 | 0.24 | 0.24 | 92 | 1005.0 |
| 20260510011741 | 53 | 217 | 0.0 | 5.2 | 0.00 | 0.24 | 0.24 | 92 | 1004.9 |
| 20260510011540 | 53 | 217 | 0.0 | 5.2 | 0.00 | 0.24 | 0.24 | 92 | 1004.8 |
| 20260510011340 | 53 | 217 | 0.9 | 5.2 | 0.00 | 0.24 | 0.24 | 92 | 1004.8 |
| 20260510011140 | 53 | 207 | 0.9 | 5.2 | 0.00 | 0.24 | 0.24 | 92 | 1004.7 |
| 20260510010939 | 53 | 211 | 0.9 | 5.2 | 0.00 | 0.24 | 0.24 | 92 | 1004.6 |
| 20260510010739 | 53 | 203 | 1.7 | 5.2 | 0.00 | 0.24 | 0.24 | 92 | 1004.6 |
| 20260510010539 | 53 | 201 | 1.7 | 3.5 | 0.00 | 0.24 | 0.24 | 92 | 1004.6 |
| 20260510010339 | 53 | 201 | 0.9 | 3.5 | 0.00 | 0.24 | 0.24 | 92 | 1004.6 |
| 20260510010138 | 53 | 200 | 0.9 | 4.3 | 0.00 | 0.24 | 0.24 | 91 | 1004.5 |
| 20260510005938 | 53 | 200 | 0.9 | 4.3 | 0.00 | 0.24 | 0.24 | 91 | 1004.5 |
| 20260510005738 | 53 | 200 | 0.9 | 4.3 | 0.00 | 0.24 | 0.24 | 91 | 1004.4 |
| 20260510005537 | 53 | 207 | 0.9 | 4.3 | 0.00 | 0.24 | 0.24 | 91 | 1004.4 |
| 20260510005337 | 54 | 214 | 0.9 | 4.3 | 0.00 | 0.24 | 0.24 | 91 | 1004.4 |
| 20260510005137 | 54 | 211 | 1.7 | 4.3 | 0.00 | 0.24 | 0.24 | 91 | 1004.3 |
| 20260510004936 | 54 | 233 | 1.7 | 4.3 | 0.00 | 0.24 | 0.24 | 91 | 1004.3 |
| 20260510004736 | 54 | 236 | 0.9 | 5.2 | 0.00 | 0.24 | 0.24 | 91 | 1004.3 |
| 20260510004536 | 54 | 236 | 0.9 | 6.1 | 0.00 | 0.24 | 0.24 | 91 | 1004.1 |
| 20260510004336 | 54 | 246 | 0.9 | 6.1 | 0.00 | 0.24 | 0.24 | 91 | 1004.1 |
| 20260510004135 | 54 | 210 | 1.7 | 6.1 | 0.00 | 0.24 | 0.24 | 91 | 1004.0 |
| 20260510003935 | 54 | 187 | 2.6 | 6.1 | 0.00 | 0.24 | 0.24 | 91 | 1004.0 |
| 20260510003735 | 54 | 226 | 2.6 | 6.1 | 0.00 | 0.24 | 0.24 | 91 | 1004.0 |
| 20260510003534 | 54 | 229 | 1.7 | 5.2 | 0.00 | 0.24 | 0.24 | 90 | 1004.0 |
| 20260510003334 | 54 | 198 | 2.6 | 5.2 | 0.00 | 0.24 | 0.24 | 90 | 1004.0 |
| 20260510003134 | 54 | 222 | 1.7 | 5.2 | 0.00 | 0.24 | 0.24 | 90 | 1004.0 |
| 20260510002933 | 54 | 207 | 1.7 | 5.2 | 0.00 | 0.24 | 0.24 | 90 | 1004.0 |
| 20260510002733 | 54 | 197 | 1.7 | 5.2 | 0.00 | 0.24 | 0.24 | 90 | 1004.1 |
| 20260510002533 | 54 | 193 | 1.7 | 5.2 | 0.00 | 0.24 | 0.24 | 90 | 1004.0 |
| 20260510002333 | 54 | 206 | 0.9 | 5.2 | 0.00 | 0.24 | 0.24 | 90 | 1004.0 |
| 20260510002132 | 54 | 213 | 1.7 | 5.2 | 0.00 | 0.24 | 0.24 | 90 | 1004.0 |
| 20260510001932 | 54 | 217 | 1.7 | 5.2 | 0.00 | 0.24 | 0.24 | 90 | 1004.0 |
| 20260510001732 | 54 | 168 | 0.9 | 5.2 | 0.00 | 0.24 | 0.24 | 90 | 1003.9 |
| 20260510001531 | 54 | 178 | 0.9 | 5.2 | 0.00 | 0.24 | 0.24 | 90 | 1004.0 |
| 20260510001331 | 54 | 245 | 1.7 | 5.2 | 0.00 | 0.24 | 0.24 | 90 | 1004.0 |
| 20260510001131 | 54 | 212 | 1.7 | 5.2 | 0.00 | 0.24 | 0.24 | 89 | 1003.9 |
| 20260510000930 | 54 | 241 | 1.7 | 5.2 | 0.00 | 0.24 | 0.24 | 89 | 1003.9 |
| 20260510000730 | 54 | 279 | 0.9 | 5.2 | 0.00 | 0.24 | 0.24 | 90 | 1003.8 |
| 20260510000530 | 54 | 271 | 0.9 | 5.2 | 0.00 | 0.24 | 0.24 | 90 | 1003.9 |
| 20260510000330 | 54 | 139 | 0.9 | 5.2 | 0.00 | 0.24 | 0.24 | 90 | 1003.9 |
| 20260510000129 | 54 | 192 | 0.9 | 5.2 | 0.00 | 0.24 | 0.24 | 90 | 1003.8 |
| 20260509235929 | 54 | 185 | 0.9 | 4.3 | 0.00 | 0.24 | 0.24 | 89 | 1003.7 |
| 20260509235729 | 54 | 233 | 0.9 | 4.3 | 0.00 | 0.24 | 0.24 | 89 | 1003.7 |
| 20260509235528 | 54 | 203 | 0.9 | 5.2 | 0.00 | 0.24 | 0.24 | 89 | 1003.6 |
| 20260509235328 | 54 | 173 | 0.9 | 6.1 | 0.00 | 0.24 | 0.24 | 89 | 1003.6 |
| 20260509235128 | 54 | 286 | 0.9 | 6.1 | 0.00 | 0.24 | 0.24 | 89 | 1003.6 |
| 20260509234927 | 54 | 246 | 0.9 | 6.1 | 0.00 | 0.24 | 0.24 | 89 | 1003.5 |
| 20260509234727 | 54 | 211 | 2.6 | 7.8 | 0.00 | 0.24 | 0.24 | 89 | 1003.5 |
| 20260509234527 | 54 | 235 | 2.6 | 7.8 | 0.00 | 0.24 | 0.24 | 89 | 1003.5 |
| 20260509234327 | 54 | 255 | 1.7 | 7.8 | 0.00 | 0.24 | 0.24 | 89 | 1003.4 |
| 20260509234126 | 54 | 220 | 3.5 | 7.8 | 0.00 | 0.24 | 0.24 | 89 | 1003.5 |
| 20260509233926 | 54 | 208 | 4.3 | 7.8 | 0.01 | 0.24 | 0.24 | 89 | 1003.5 |
| 20260509233726 | 54 | 199 | 2.6 | 8.7 | 0.01 | 0.24 | 0.24 | 89 | 1003.6 |
| 20260509233525 | 54 | 140 | 1.7 | 8.7 | 0.01 | 0.24 | 0.24 | 88 | 1003.6 |
| 20260509233325 | 54 | 153 | 2.6 | 8.7 | 0.01 | 0.24 | 0.24 | 88 | 1003.4 |
| 20260509233125 | 54 | 193 | 3.5 | 8.7 | 0.01 | 0.24 | 0.24 | 88 | 1003.2 |
| 20260509232924 | 54 | 206 | 3.5 | 8.7 | 0.01 | 0.24 | 0.24 | 88 | 1003.2 |
| 20260509232724 | 54 | 216 | 3.5 | 7.0 | 0.01 | 0.24 | 0.24 | 88 | 1003.2 |
| 20260509232524 | 54 | 237 | 3.5 | 10.4 | 0.01 | 0.24 | 0.24 | 88 | 1003.2 |
| 20260509232324 | 55 | 213 | 3.5 | 10.4 | 0.01 | 0.24 | 0.24 | 88 | 1003.1 |
| 20260509232123 | 54 | 210 | 3.5 | 10.4 | 0.01 | 0.24 | 0.24 | 88 | 1003.0 |
| 20260509231923 | 55 | 230 | 3.5 | 11.3 | 0.01 | 0.24 | 0.24 | 87 | 1003.2 |
| 20260509231723 | 55 | 227 | 4.3 | 12.2 | 0.01 | 0.24 | 0.24 | 87 | 1003.1 |
| 20260509231522 | 54 | 206 | 4.3 | 12.2 | 0.01 | 0.24 | 0.24 | 87 | 1003.0 |
| 20260509231322 | 54 | 201 | 6.1 | 12.2 | 0.01 | 0.24 | 0.24 | 87 | 1003.0 |
| 20260509231122 | 54 | 211 | 5.2 | 12.2 | 0.01 | 0.24 | 0.24 | 87 | 1003.0 |
| 20260509230921 | 54 | 215 | 4.3 | 11.3 | 0.01 | 0.24 | 0.24 | 87 | 1003.1 |
| 20260509230721 | 54 | 225 | 4.3 | 11.3 | 0.01 | 0.24 | 0.24 | 88 | 1003.0 |
| 20260509230521 | 54 | 218 | 6.1 | 13.0 | 0.01 | 0.24 | 0.24 | 87 | 1003.0 |
| 20260509230321 | 54 | 218 | 5.2 | 13.0 | 0.01 | 0.24 | 0.24 | 87 | 1003.0 |
| 20260509230120 | 54 | 220 | 4.3 | 13.0 | 0.01 | 0.24 | 0.24 | 87 | 1003.0 |
| 20260509225920 | 54 | 216 | 6.1 | 13.0 | 0.01 | 0.24 | 0.24 | 87 | 1003.0 |
| 20260509225720 | 54 | 216 | 6.1 | 13.0 | 0.02 | 0.24 | 0.24 | 87 | 1003.0 |
| 20260509225519 | 54 | 215 | 6.1 | 13.0 | 0.03 | 0.24 | 0.24 | 87 | 1003.1 |
| 20260509225319 | 54 | 223 | 6.1 | 15.6 | 0.04 | 0.24 | 0.24 | 87 | 1003.0 |
| 20260509223918 | 54 | 215 | 4.3 | 13.0 | 0.19 | 0.23 | 0.23 | 90 | 1002.8 |
| 20260509223718 | 54 | 215 | 6.1 | 13.0 | 0.21 | 0.23 | 0.23 | 90 | 1002.9 |
| 20260509223517 | 53 | 216 | 5.2 | 13.0 | 0.21 | 0.23 | 0.23 | 91 | 1002.9 |
| 20260509223317 | 53 | 222 | 4.3 | 13.0 | 0.22 | 0.23 | 0.23 | 92 | 1002.9 |
| 20260509223048 | 53 | 211 | 5.2 | 13.0 | 0.22 | 0.23 | 0.23 | 93 | 1003.0 |
| 20260509222848 | 52 | 210 | 5.2 | 13.0 | 0.23 | 0.23 | 0.23 | 93 | 1003.0 |
| 20260509222648 | 52 | 210 | 5.2 | 13.0 | 0.23 | 0.23 | 0.23 | 92 | 1003.1 |
| 20260509222347 | 51 | 213 | 6.1 | 13.0 | 0.23 | 0.23 | 0.23 | 92 | 1003.3 |
| 20260509222147 | 51 | 220 | 5.2 | 13.0 | 0.23 | 0.23 | 0.23 | 92 | 1003.3 |
| 20260509221947 | 51 | 220 | 5.2 | 16.5 | 0.23 | 0.23 | 0.23 | 92 | 1003.2 |
| 20260509221746 | 52 | 215 | 6.1 | 16.5 | 0.23 | 0.23 | 0.23 | 92 | 1003.1 |
| 20260509221546 | 52 | 214 | 7.8 | 16.5 | 0.23 | 0.23 | 0.23 | 92 | 1003.4 |
| 20260509221346 | 52 | 211 | 7.8 | 16.5 | 0.23 | 0.23 | 0.23 | 92 | 1003.6 |
| 20260509221145 | 52 | 213 | 7.8 | 16.5 | 0.23 | 0.23 | 0.23 | 91 | 1003.6 |
| 20260509220945 | 52 | 224 | 7.0 | 16.5 | 0.23 | 0.23 | 0.23 | 91 | 1003.6 |
| 20260509220745 | 52 | 224 | 5.2 | 15.6 | 0.23 | 0.23 | 0.23 | 91 | 1003.4 |
| 20260509220545 | 52 | 218 | 6.1 | 16.5 | 0.23 | 0.23 | 0.23 | 92 | 1003.4 |
| 20260509220345 | 52 | 217 | 5.2 | 16.5 | 0.23 | 0.23 | 0.23 | 92 | 1003.0 |
| 20260509220144 | 52 | 227 | 4.3 | 18.2 | 0.23 | 0.23 | 0.23 | 92 | 1003.6 |
| 20260509215944 | 52 | 227 | 4.3 | 18.2 | 0.23 | 0.23 | 0.23 | 91 | 1003.7 |
| 20260509215743 | 53 | 211 | 5.2 | 18.2 | 0.22 | 0.22 | 0.22 | 91 | 1003.9 |
| 20260509215543 | 53 | 194 | 6.1 | 18.2 | 0.21 | 0.21 | 0.21 | 91 | 1004.0 |
| 20260509215343 | 53 | 184 | 6.1 | 18.2 | 0.19 | 0.19 | 0.19 | 91 | 1004.2 |
| 20260509215142 | 53 | 152 | 3.5 | 20.9 | 0.19 | 0.19 | 0.19 | 90 | 1004.2 |
| 20260509214942 | 53 | 193 | 5.2 | 21.7 | 0.17 | 0.17 | 0.17 | 86 | 1004.3 |
| 20260509214742 | 54 | 231 | 5.2 | 21.7 | 0.16 | 0.16 | 0.16 | 84 | 1004.1 |
| 20260509214542 | 55 | 239 | 7.0 | 21.7 | 0.15 | 0.15 | 0.15 | 82 | 1004.2 |
| 20260509214341 | 57 | 190 | 8.7 | 21.7 | 0.12 | 0.12 | 0.12 | 82 | 1004.3 |
| 20260509214141 | 58 | 197 | 8.7 | 19.1 | 0.06 | 0.06 | 0.06 | 82 | 1004.1 |
| 20260509213941 | 59 | 208 | 9.6 | 19.1 | 0.04 | 0.04 | 0.04 | 80 | 1004.0 |
| 20260509213740 | 59 | 256 | 7.0 | 19.1 | 0.02 | 0.02 | 0.02 | 78 | 1003.4 |
| 20260509213540 | 60 | 250 | 4.3 | 15.6 | 0.02 | 0.02 | 0.02 | 77 | 1003.1 |
| 20260509213340 | 60 | 197 | 3.5 | 15.6 | 0.01 | 0.01 | 0.01 | 78 | 1002.9 |
| 20260509213139 | 60 | 201 | 5.2 | 13.9 | 0.01 | 0.01 | 0.01 | 81 | 1002.6 |
| 20260509213023 | 60 | 217 | 6.1 | 13.9 | 0.00 | 0.00 | 0.00 | 81 | 1002.6 |
| 20260509212823 | 61 | 210 | 6.1 | 13.9 | 0.00 | 0.00 | 0.00 | 80 | 1002.8 |
| 20260509212640 | 61 | 209 | 6.1 | 13.0 | 0.00 | 0.00 | 0.00 | 79 | 1002.3 |
| 20260509212440 | 61 | 211 | 5.2 | 13.0 | 0.00 | 0.00 | 0.00 | 78 | 1002.4 |
| 20260509212240 | 61 | 196 | 5.2 | 13.0 | 0.00 | 0.00 | 0.00 | 78 | 1002.4 |
| 20260509212039 | 61 | 213 | 4.3 | 13.0 | 0.00 | 0.00 | 0.00 | 78 | 1002.4 |
| 20260509211839 | 61 | 212 | 5.2 | 13.0 | 0.00 | 0.00 | 0.00 | 77 | 1002.3 |
| 20260509211639 | 61 | 214 | 6.1 | 13.0 | 0.00 | 0.00 | 0.00 | 77 | 1002.4 |
| 20260509211508 | 61 | 219 | 7.0 | 13.0 | 0.00 | 0.00 | 0.00 | 77 | 1002.3 |
| 20260509211307 | 61 | 215 | 6.1 | 13.0 | 0.00 | 0.00 | 0.00 | 77 | 1002.3 |
| 20260509211107 | 61 | 218 | 6.1 | 12.2 | 0.00 | 0.00 | 0.00 | 77 | 1002.3 |
| 20260509210907 | 61 | 210 | 6.1 | 13.9 | 0.00 | 0.00 | 0.00 | 76 | 1002.3 |
| 20260509210707 | 61 | 205 | 6.1 | 14.8 | 0.00 | 0.00 | 0.00 | 76 | 1002.2 |
| 20260509210506 | 61 | 220 | 5.2 | 14.8 | 0.00 | 0.00 | 0.00 | 76 | 1002.4 |
| 20260509210306 | 62 | 218 | 6.1 | 14.8 | 0.00 | 0.00 | 0.00 | 76 | 1002.2 |
| 20260509210106 | 62 | 221 | 6.1 | 15.6 | 0.00 | 0.00 | 0.00 | 76 | 1002.2 |
| 20260509205905 | 62 | 224 | 5.2 | 23.5 | 0.00 | 0.00 | 0.00 | 76 | 1002.2 |
| 20260509205705 | 62 | 219 | 5.2 | 23.5 | 0.00 | 0.00 | 0.00 | 76 | 1002.2 |
| 20260509205505 | 62 | 214 | 7.8 | 23.5 | 0.00 | 0.00 | 0.00 | 75 | 1002.1 |
| 20260509205307 | 62 | 199 | 7.8 | 23.5 | 0.00 | 0.00 | 0.00 | 75 | 1002.0 |
| 20260509205104 | 62 | 212 | 7.0 | 23.5 | 0.00 | 0.00 | 0.00 | 75 | 1002.0 |
| 20260509204904 | 62 | 219 | 7.0 | 17.4 | 0.00 | 0.00 | 0.00 | 75 | 1001.9 |
| 20260509204704 | 62 | 215 | 7.8 | 17.4 | 0.00 | 0.00 | 0.00 | 74 | 1001.8 |
| 20260509204503 | 62 | 220 | 7.8 | 17.4 | 0.00 | 0.00 | 0.00 | 74 | 1001.8 |
| 20260509204303 | 62 | 216 | 6.1 | 16.5 | 0.00 | 0.00 | 0.00 | 73 | 1001.9 |
| 20260509204103 | 62 | 212 | 6.1 | 13.9 | 0.00 | 0.00 | 0.00 | 73 | 1001.9 |
| 20260509203902 | 62 | 210 | 6.1 | 17.4 | 0.00 | 0.00 | 0.00 | 73 | 1001.9 |
| 20260509203702 | 62 | 218 | 7.0 | 17.4 | 0.00 | 0.00 | 0.00 | 73 | 1001.9 |
| 20260509203502 | 62 | 209 | 7.0 | 17.4 | 0.00 | 0.00 | 0.00 | 73 | 1001.9 |
| 20260509203301 | 62 | 214 | 7.8 | 18.2 | 0.00 | 0.00 | 0.00 | 73 | 1001.9 |
| 20260509203101 | 63 | 227 | 7.0 | 19.1 | 0.00 | 0.00 | 0.00 | 73 | 1001.9 |
| 20260509202901 | 63 | 218 | 8.7 | 19.1 | 0.00 | 0.00 | 0.00 | 73 | 1002.0 |
| 20260509202701 | 63 | 206 | 9.6 | 19.1 | 0.00 | 0.00 | 0.00 | 73 | 1002.1 |
| 20260509202500 | 63 | 213 | 9.6 | 19.1 | 0.00 | 0.00 | 0.00 | 73 | 1002.2 |
| 20260509202300 | 63 | 214 | 7.0 | 19.1 | 0.00 | 0.00 | 0.00 | 73 | 1002.2 |
| 20260509202100 | 63 | 202 | 7.8 | 19.1 | 0.00 | 0.00 | 0.00 | 73 | 1002.3 |
| 20260509201859 | 63 | 210 | 8.7 | 19.1 | 0.00 | 0.00 | 0.00 | 73 | 1002.3 |
| 20260509201659 | 63 | 214 | 8.7 | 17.4 | 0.00 | 0.00 | 0.00 | 73 | 1002.3 |
| 20260509201459 | 63 | 215 | 7.0 | 15.6 | 0.00 | 0.00 | 0.00 | 73 | 1002.2 |
| 20260509201258 | 63 | 225 | 7.8 | 15.6 | 0.00 | 0.00 | 0.00 | 74 | 1002.2 |
| 20260509201058 | 63 | 219 | 7.0 | 15.6 | 0.00 | 0.00 | 0.00 | 74 | 1002.2 |
| 20260509200858 | 64 | 217 | 5.2 | 15.6 | 0.00 | 0.00 | 0.00 | 75 | 1002.2 |
| 20260509200658 | 63 | 220 | 7.8 | 17.4 | 0.00 | 0.00 | 0.00 | 74 | 1002.2 |
| 20260509200457 | 64 | 212 | 7.8 | 17.4 | 0.00 | 0.00 | 0.00 | 74 | 1002.2 |
| 20260509200257 | 64 | 224 | 5.2 | 17.4 | 0.00 | 0.00 | 0.00 | 74 | 1002.2 |
| 20260509200057 | 64 | 219 | 7.8 | 17.4 | 0.00 | 0.00 | 0.00 | 74 | 1002.3 |
| 20260509195856 | 64 | 226 | 7.8 | 17.4 | 0.00 | 0.00 | 0.00 | 73 | 1002.3 |
| 20260509195656 | 64 | 217 | 7.0 | 17.4 | 0.00 | 0.00 | 0.00 | 72 | 1002.2 |
| 20260509195456 | 64 | 211 | 7.8 | 16.5 | 0.00 | 0.00 | 0.00 | 71 | 1002.1 |
| 20260509195255 | 64 | 221 | 6.1 | 16.5 | 0.00 | 0.00 | 0.00 | 71 | 1002.1 |
| 20260509195055 | 64 | 222 | 6.1 | 16.5 | 0.00 | 0.00 | 0.00 | 72 | 1002.1 |
| 20260509194855 | 63 | 211 | 9.6 | 16.5 | 0.00 | 0.00 | 0.00 | 72 | 1002.1 |
| 20260509194655 | 63 | 216 | 7.0 | 16.5 | 0.00 | 0.00 | 0.00 | 72 | 1002.2 |
| 20260509194454 | 62 | 224 | 6.1 | 13.9 | 0.00 | 0.00 | 0.00 | 73 | 1002.3 |
| 20260509194254 | 62 | 211 | 7.0 | 14.8 | 0.00 | 0.00 | 0.00 | 74 | 1002.4 |
| 20260509194054 | 62 | 208 | 6.1 | 14.8 | 0.00 | 0.00 | 0.00 | 74 | 1002.6 |
| 20260509193853 | 62 | 199 | 5.2 | 14.8 | 0.00 | 0.00 | 0.00 | 75 | 1002.7 |
| 20260509193653 | 62 | 202 | 6.1 | 14.8 | 0.00 | 0.00 | 0.00 | 75 | 1003.0 |
| 20260509193453 | 62 | 214 | 6.1 | 14.8 | 0.00 | 0.00 | 0.00 | 75 | 1003.2 |
| 20260509193252 | 62 | 219 | 5.2 | 14.8 | 0.00 | 0.00 | 0.00 | 75 | 1003.3 |
| 20260509193052 | 63 | 215 | 5.2 | 14.8 | 0.00 | 0.00 | 0.00 | 75 | 1003.3 |
| 20260509192852 | 63 | 207 | 7.0 | 14.8 | 0.00 | 0.00 | 0.00 | 74 | 1003.3 |
| 20260509192652 | 63 | 218 | 7.8 | 14.8 | 0.00 | 0.00 | 0.00 | 74 | 1003.4 |
| 20260509192451 | 63 | 217 | 6.1 | 12.2 | 0.00 | 0.00 | 0.00 | 74 | 1003.3 |
| 20260509192251 | 63 | 213 | 5.2 | 12.2 | 0.00 | 0.00 | 0.00 | 74 | 1003.4 |
| 20260509192051 | 63 | 216 | 6.1 | 12.2 | 0.00 | 0.00 | 0.00 | 74 | 1003.1 |
| 20260509191850 | 63 | 216 | 7.0 | 12.2 | 0.00 | 0.00 | 0.00 | 73 | 1002.9 |
| 20260509191650 | 63 | 219 | 7.8 | 12.2 | 0.00 | 0.00 | 0.00 | 73 | 1002.9 |
| 20260509191450 | 64 | 216 | 7.0 | 12.2 | 0.00 | 0.00 | 0.00 | 73 | 1003.0 |
| 20260509191249 | 64 | 210 | 4.3 | 12.2 | 0.00 | 0.00 | 0.00 | 72 | 1003.1 |
| 20260509191049 | 64 | 216 | 5.2 | 12.2 | 0.00 | 0.00 | 0.00 | 73 | 1003.2 |
| 20260509190849 | 64 | 214 | 7.0 | 16.5 | 0.00 | 0.00 | 0.00 | 72 | 1003.2 |
| 20260509190649 | 64 | 217 | 6.1 | 16.5 | 0.00 | 0.00 | 0.00 | 72 | 1003.2 |
| 20260509190448 | 64 | 228 | 6.1 | 16.5 | 0.00 | 0.00 | 0.00 | 72 | 1003.1 |
| 20260509190248 | 64 | 222 | 7.8 | 19.1 | 0.00 | 0.00 | 0.00 | 71 | 1003.1 |
| 20260509190048 | 64 | 220 | 7.0 | 19.1 | 0.00 | 0.00 | 0.00 | 71 | 1003.0 |
| 20260509185847 | 65 | 219 | 7.0 | 19.1 | 0.00 | 0.00 | 0.00 | 71 | 1003.0 |
| 20260509185647 | 65 | 221 | 7.0 | 19.1 | 0.00 | 0.00 | 0.00 | 71 | 1002.8 |
| 20260509185447 | 64 | 218 | 7.8 | 19.1 | 0.00 | 0.00 | 0.00 | 71 | 1002.9 |
| 20260509185246 | 64 | 217 | 8.7 | 17.4 | 0.00 | 0.00 | 0.00 | 70 | 1002.9 |
| 20260509185046 | 65 | 219 | 9.6 | 17.4 | 0.00 | 0.00 | 0.00 | 69 | 1002.9 |
| 20260509184846 | 65 | 219 | 6.1 | 15.6 | 0.00 | 0.00 | 0.00 | 69 | 1002.9 |
| 20260509184645 | 66 | 222 | 7.0 | 15.6 | 0.00 | 0.00 | 0.00 | 70 | 1002.7 |
| 20260509184445 | 66 | 219 | 8.7 | 18.2 | 0.00 | 0.00 | 0.00 | 69 | 1002.9 |
| 20260509184245 | 66 | 219 | 8.7 | 18.2 | 0.00 | 0.00 | 0.00 | 68 | 1002.9 |
| 20260509184045 | 67 | 227 | 5.2 | 18.2 | 0.00 | 0.00 | 0.00 | 69 | 1002.9 |
| 20260509183844 | 66 | 230 | 6.1 | 18.2 | 0.00 | 0.00 | 0.00 | 70 | 1002.7 |
| 20260509183644 | 66 | 213 | 7.0 | 18.2 | 0.00 | 0.00 | 0.00 | 71 | 1002.9 |
| 20260509183444 | 66 | 216 | 7.8 | 13.9 | 0.00 | 0.00 | 0.00 | 70 | 1002.9 |
| 20260509183243 | 65 | 219 | 8.7 | 18.2 | 0.00 | 0.00 | 0.00 | 70 | 1003.0 |
| 20260509183043 | 65 | 228 | 6.1 | 19.1 | 0.00 | 0.00 | 0.00 | 70 | 1003.0 |
| 20260509182843 | 65 | 218 | 6.1 | 19.1 | 0.00 | 0.00 | 0.00 | 71 | 1003.1 |
| 20260509182643 | 65 | 219 | 7.0 | 19.1 | 0.00 | 0.00 | 0.00 | 71 | 1003.0 |
| 20260509182442 | 65 | 219 | 8.7 | 19.1 | 0.00 | 0.00 | 0.00 | 71 | 1003.0 |
| 20260509182242 | 65 | 214 | 7.8 | 19.1 | 0.00 | 0.00 | 0.00 | 70 | 1003.0 |
| 20260509182042 | 65 | 209 | 7.8 | 13.9 | 0.00 | 0.00 | 0.00 | 70 | 1003.2 |
| 20260509181841 | 65 | 215 | 7.0 | 16.5 | 0.00 | 0.00 | 0.00 | 69 | 1003.2 |
| 20260509181641 | 66 | 229 | 5.2 | 16.5 | 0.00 | 0.00 | 0.00 | 70 | 1003.2 |
| 20260509181441 | 66 | 223 | 6.1 | 16.5 | 0.00 | 0.00 | 0.00 | 69 | 1003.3 |
| 20260509181240 | 65 | 208 | 8.7 | 16.5 | 0.00 | 0.00 | 0.00 | 70 | 1003.3 |
| 20260509181040 | 65 | 205 | 9.6 | 16.5 | 0.00 | 0.00 | 0.00 | 69 | 1003.3 |
| 20260509180840 | 65 | 217 | 7.0 | 14.8 | 0.00 | 0.00 | 0.00 | 69 | 1003.3 |
| 20260509180640 | 65 | 214 | 7.0 | 16.5 | 0.00 | 0.00 | 0.00 | 71 | 1003.2 |
| 20260509180439 | 65 | 204 | 7.8 | 16.5 | 0.00 | 0.00 | 0.00 | 70 | 1003.3 |
| 20260509180239 | 65 | 200 | 7.0 | 16.5 | 0.00 | 0.00 | 0.00 | 70 | 1003.4 |
| 20260509180039 | 65 | 202 | 7.8 | 16.5 | 0.00 | 0.00 | 0.00 | 70 | 1003.4 |
| 20260509175838 | 65 | 215 | 7.8 | 16.5 | 0.00 | 0.00 | 0.00 | 70 | 1003.5 |
| 20260509175638 | 65 | 219 | 7.0 | 16.5 | 0.00 | 0.00 | 0.00 | 72 | 1003.4 |
| 20260509175438 | 64 | 222 | 7.0 | 16.5 | 0.00 | 0.00 | 0.00 | 72 | 1003.4 |
| 20260509175237 | 64 | 213 | 6.1 | 16.5 | 0.00 | 0.00 | 0.00 | 72 | 1003.4 |
| 20260509175037 | 64 | 226 | 5.2 | 16.5 | 0.00 | 0.00 | 0.00 | 73 | 1003.5 |
| 20260509174837 | 64 | 224 | 7.0 | 16.5 | 0.00 | 0.00 | 0.00 | 73 | 1003.5 |
| 20260509174636 | 64 | 229 | 7.0 | 16.5 | 0.00 | 0.00 | 0.00 | 72 | 1003.6 |
| 20260509174436 | 64 | 235 | 4.3 | 11.3 | 0.00 | 0.00 | 0.00 | 72 | 1003.5 |
| 20260509174236 | 64 | 218 | 5.2 | 13.0 | 0.00 | 0.00 | 0.00 | 72 | 1003.7 |
| 20260509174036 | 64 | 215 | 6.1 | 13.0 | 0.00 | 0.00 | 0.00 | 72 | 1003.7 |
| 20260509173835 | 64 | 208 | 6.1 | 13.9 | 0.00 | 0.00 | 0.00 | 71 | 1003.7 |
| 20260509173635 | 64 | 214 | 7.0 | 15.6 | 0.00 | 0.00 | 0.00 | 71 | 1003.7 |
| 20260509173435 | 64 | 251 | 4.3 | 15.6 | 0.00 | 0.00 | 0.00 | 70 | 1003.8 |
| 20260509173234 | 64 | 238 | 5.2 | 15.6 | 0.00 | 0.00 | 0.00 | 71 | 1003.7 |
| 20260509173034 | 65 | 226 | 7.0 | 15.6 | 0.00 | 0.00 | 0.00 | 70 | 1003.8 |
| 20260509172834 | 65 | 221 | 6.1 | 15.6 | 0.00 | 0.00 | 0.00 | 69 | 1003.8 |
| 20260509172634 | 66 | 222 | 5.2 | 13.0 | 0.00 | 0.00 | 0.00 | 68 | 1003.8 |
| 20260509172433 | 66 | 219 | 5.2 | 15.6 | 0.00 | 0.00 | 0.00 | 69 | 1003.9 |
| 20260509172233 | 66 | 232 | 4.3 | 16.5 | 0.00 | 0.00 | 0.00 | 69 | 1003.9 |
| 20260509172033 | 66 | 241 | 4.3 | 16.5 | 0.00 | 0.00 | 0.00 | 70 | 1004.0 |
| 20260509171832 | 65 | 211 | 8.7 | 16.5 | 0.00 | 0.00 | 0.00 | 70 | 1004.0 |
| 20260509171632 | 65 | 213 | 8.7 | 16.5 | 0.00 | 0.00 | 0.00 | 69 | 1004.1 |
| 20260509171432 | 66 | 222 | 6.1 | 16.5 | 0.00 | 0.00 | 0.00 | 70 | 1004.1 |
| 20260509171231 | 65 | 223 | 6.1 | 15.6 | 0.00 | 0.00 | 0.00 | 71 | 1004.1 |
| 20260509171031 | 65 | 219 | 7.8 | 15.6 | 0.00 | 0.00 | 0.00 | 71 | 1004.1 |
| 20260509170831 | 65 | 234 | 6.1 | 15.6 | 0.00 | 0.00 | 0.00 | 71 | 1004.1 |
| 20260509170630 | 64 | 248 | 6.1 | 15.6 | 0.00 | 0.00 | 0.00 | 71 | 1004.1 |
| 20260509170430 | 64 | 226 | 7.8 | 15.6 | 0.00 | 0.00 | 0.00 | 70 | 1004.2 |
| 20260509170230 | 64 | 216 | 7.0 | 15.6 | 0.00 | 0.00 | 0.00 | 71 | 1004.4 |
| 20260509170030 | 64 | 220 | 6.1 | 15.6 | 0.00 | 0.00 | 0.00 | 71 | 1004.4 |
| 20260509165829 | 64 | 219 | 7.8 | 16.5 | 0.00 | 0.00 | 0.00 | 71 | 1004.5 |
| 20260509165629 | 64 | 223 | 6.1 | 18.2 | 0.00 | 0.00 | 0.00 | 71 | 1004.5 |
| 20260509165429 | 65 | 225 | 6.1 | 18.2 | 0.00 | 0.00 | 0.00 | 70 | 1004.6 |
| 20260509165228 | 65 | 215 | 7.0 | 18.2 | 0.00 | 0.00 | 0.00 | 70 | 1004.6 |
| 20260509165028 | 65 | 222 | 7.8 | 18.2 | 0.00 | 0.00 | 0.00 | 70 | 1004.6 |
| 20260509164828 | 65 | 222 | 7.8 | 18.2 | 0.00 | 0.00 | 0.00 | 70 | 1004.6 |
| 20260509164627 | 65 | 217 | 7.0 | 18.2 | 0.00 | 0.00 | 0.00 | 70 | 1004.4 |
| 20260509164427 | 65 | 205 | 7.8 | 16.5 | 0.00 | 0.00 | 0.00 | 71 | 1004.5 |
| 20260509164227 | 65 | 214 | 9.6 | 16.5 | 0.00 | 0.00 | 0.00 | 70 | 1004.6 |
| 20260509164027 | 65 | 220 | 6.1 | 15.6 | 0.00 | 0.00 | 0.00 | 70 | 1004.6 |
| 20260509163826 | 65 | 217 | 6.1 | 13.9 | 0.00 | 0.00 | 0.00 | 69 | 1004.5 |
| 20260509163626 | 65 | 206 | 6.1 | 13.9 | 0.00 | 0.00 | 0.00 | 70 | 1004.7 |
| 20260509163426 | 65 | 197 | 7.0 | 15.6 | 0.00 | 0.00 | 0.00 | 71 | 1004.6 |
| 20260509163225 | 65 | 208 | 7.0 | 16.5 | 0.00 | 0.00 | 0.00 | 70 | 1004.7 |
| 20260509163025 | 64 | 213 | 7.0 | 16.5 | 0.00 | 0.00 | 0.00 | 71 | 1004.7 |
| 20260509162825 | 64 | 213 | 7.0 | 16.5 | 0.00 | 0.00 | 0.00 | 72 | 1004.6 |
| 20260509162624 | 64 | 212 | 7.8 | 16.5 | 0.00 | 0.00 | 0.00 | 71 | 1004.5 |
| 20260509162424 | 64 | 213 | 7.0 | 14.8 | 0.00 | 0.00 | 0.00 | 71 | 1004.4 |
| 20260509162224 | 65 | 224 | 6.1 | 14.8 | 0.00 | 0.00 | 0.00 | 70 | 1004.4 |
| 20260509162024 | 65 | 233 | 5.2 | 14.8 | 0.00 | 0.00 | 0.00 | 70 | 1004.4 |
| 20260509161823 | 65 | 222 | 5.2 | 14.8 | 0.00 | 0.00 | 0.00 | 70 | 1004.4 |
| 20260509161623 | 65 | 212 | 5.2 | 13.0 | 0.00 | 0.00 | 0.00 | 71 | 1004.6 |
| 20260509161423 | 64 | 227 | 6.1 | 13.9 | 0.00 | 0.00 | 0.00 | 71 | 1004.7 |
| 20260509161222 | 64 | 232 | 5.2 | 13.9 | 0.00 | 0.00 | 0.00 | 71 | 1004.6 |
| 20260509161022 | 64 | 230 | 5.2 | 13.9 | 0.00 | 0.00 | 0.00 | 70 | 1004.6 |
| 20260509160822 | 64 | 218 | 6.1 | 13.9 | 0.00 | 0.00 | 0.00 | 70 | 1004.6 |
| 20260509160621 | 64 | 218 | 4.3 | 12.2 | 0.00 | 0.00 | 0.00 | 71 | 1004.7 |
| 20260509160421 | 64 | 220 | 5.2 | 12.2 | 0.00 | 0.00 | 0.00 | 71 | 1004.6 |
| 20260509160221 | 64 | 230 | 5.2 | 11.3 | 0.00 | 0.00 | 0.00 | 71 | 1004.5 |
| 20260509160021 | 64 | 213 | 5.2 | 13.0 | 0.00 | 0.00 | 0.00 | 71 | 1004.5 |
| 20260509155820 | 64 | 229 | 3.5 | 13.0 | 0.00 | 0.00 | 0.00 | 72 | 1004.6 |
| 20260509155620 | 63 | 221 | 3.5 | 13.0 | 0.00 | 0.00 | 0.00 | 73 | 1004.5 |
| 20260509155420 | 63 | 213 | 3.5 | 13.0 | 0.00 | 0.00 | 0.00 | 72 | 1004.7 |
| 20260509155219 | 63 | 213 | 5.2 | 13.0 | 0.00 | 0.00 | 0.00 | 71 | 1004.7 |
| 20260509155019 | 64 | 217 | 4.3 | 12.2 | 0.00 | 0.00 | 0.00 | 71 | 1004.8 |
| 20260509154819 | 64 | 219 | 4.3 | 12.2 | 0.00 | 0.00 | 0.00 | 73 | 1004.8 |
| 20260509154618 | 63 | 225 | 4.3 | 12.2 | 0.00 | 0.00 | 0.00 | 73 | 1004.8 |
| 20260509154419 | 63 | 227 | 4.3 | 12.2 | 0.00 | 0.00 | 0.00 | 73 | 1004.8 |
| 20260509154218 | 63 | 228 | 3.5 | 12.2 | 0.00 | 0.00 | 0.00 | 72 | 1004.9 |
| 20260509154018 | 63 | 222 | 4.3 | 12.2 | 0.00 | 0.00 | 0.00 | 72 | 1005.0 |
| 20260509153817 | 63 | 213 | 4.3 | 12.2 | 0.00 | 0.00 | 0.00 | 72 | 1005.1 |
| 20260509153617 | 63 | 214 | 4.3 | 8.7 | 0.00 | 0.00 | 0.00 | 72 | 1005.1 |
| 20260509153417 | 63 | 213 | 4.3 | 13.0 | 0.00 | 0.00 | 0.00 | 73 | 1005.2 |
| 20260509153216 | 63 | 208 | 2.6 | 13.0 | 0.00 | 0.00 | 0.00 | 73 | 1005.2 |
| 20260509153016 | 63 | 216 | 2.6 | 13.0 | 0.00 | 0.00 | 0.00 | 74 | 1005.2 |
| 20260509152816 | 62 | 217 | 3.5 | 13.0 | 0.00 | 0.00 | 0.00 | 74 | 1005.2 |
| 20260509152615 | 62 | 224 | 5.2 | 13.0 | 0.00 | 0.00 | 0.00 | 74 | 1005.3 |
| 20260509152415 | 62 | 227 | 5.2 | 12.2 | 0.00 | 0.00 | 0.00 | 75 | 1005.3 |
| 20260509152215 | 62 | 226 | 6.1 | 12.2 | 0.00 | 0.00 | 0.00 | 75 | 1005.4 |
| 20260509152015 | 61 | 221 | 6.1 | 15.6 | 0.00 | 0.00 | 0.00 | 75 | 1005.4 |
| 20260509151814 | 61 | 213 | 7.0 | 15.6 | 0.00 | 0.00 | 0.00 | 75 | 1005.4 |
| 20260509151614 | 61 | 209 | 6.1 | 15.6 | 0.00 | 0.00 | 0.00 | 76 | 1005.4 |
| 20260509151414 | 60 | 199 | 4.3 | 15.6 | 0.00 | 0.00 | 0.00 | 77 | 1005.3 |
| 20260509151213 | 60 | 218 | 8.7 | 15.6 | 0.00 | 0.00 | 0.00 | 77 | 1005.4 |
| 20260509151013 | 60 | 219 | 7.0 | 13.9 | 0.00 | 0.00 | 0.00 | 78 | 1005.3 |
| 20260509150813 | 60 | 210 | 7.0 | 12.2 | 0.00 | 0.00 | 0.00 | 77 | 1005.4 |
| 20260509150612 | 60 | 214 | 6.1 | 11.3 | 0.00 | 0.00 | 0.00 | 78 | 1005.4 |
| 20260509150412 | 60 | 211 | 3.5 | 11.3 | 0.00 | 0.00 | 0.00 | 78 | 1005.3 |
| 20260509150212 | 60 | 212 | 4.3 | 11.3 | 0.00 | 0.00 | 0.00 | 78 | 1005.3 |
| 20260509150012 | 60 | 200 | 6.1 | 11.3 | 0.00 | 0.00 | 0.00 | 78 | 1005.4 |
| 20260509145811 | 60 | 199 | 4.3 | 11.3 | 0.00 | 0.00 | 0.00 | 77 | 1005.2 |
| 20260509145611 | 60 | 204 | 4.3 | 13.9 | 0.00 | 0.00 | 0.00 | 78 | 1005.3 |
| 20260509145411 | 60 | 211 | 2.6 | 13.9 | 0.00 | 0.00 | 0.00 | 79 | 1005.2 |
| 20260509145210 | 60 | 209 | 5.2 | 13.9 | 0.00 | 0.00 | 0.00 | 80 | 1005.2 |
| 20260509145010 | 60 | 222 | 5.2 | 13.9 | 0.00 | 0.00 | 0.00 | 79 | 1005.2 |
| 20260509144810 | 60 | 208 | 6.1 | 13.9 | 0.00 | 0.00 | 0.00 | 79 | 1005.2 |
| 20260509144609 | 60 | 219 | 5.2 | 10.4 | 0.00 | 0.00 | 0.00 | 79 | 1005.2 |
| 20260509144409 | 60 | 226 | 4.3 | 11.3 | 0.00 | 0.00 | 0.00 | 81 | 1005.2 |
| 20260509144209 | 60 | 212 | 3.5 | 12.2 | 0.00 | 0.00 | 0.00 | 80 | 1005.3 |
| 20260509144008 | 60 | 224 | 3.5 | 12.2 | 0.00 | 0.00 | 0.00 | 81 | 1005.4 |
| 20260509143808 | 60 | 219 | 3.5 | 12.2 | 0.00 | 0.00 | 0.00 | 81 | 1005.4 |
| 20260509143608 | 59 | 224 | 4.3 | 13.0 | 0.00 | 0.00 | 0.00 | 81 | 1005.4 |
| 20260509143408 | 59 | 224 | 3.5 | 13.0 | 0.00 | 0.00 | 0.00 | 81 | 1005.4 |
| 20260509143207 | 59 | 219 | 6.1 | 13.0 | 0.00 | 0.00 | 0.00 | 81 | 1005.4 |
| 20260509143007 | 59 | 216 | 6.1 | 13.0 | 0.00 | 0.00 | 0.00 | 80 | 1005.5 |
| 20260509142807 | 60 | 215 | 5.2 | 13.0 | 0.00 | 0.00 | 0.00 | 80 | 1005.5 |
| 20260509142606 | 60 | 214 | 4.3 | 11.3 | 0.00 | 0.00 | 0.00 | 81 | 1005.5 |
| 20260509142406 | 60 | 219 | 3.5 | 11.3 | 0.00 | 0.00 | 0.00 | 81 | 1005.5 |
| 20260509142206 | 59 | 221 | 4.3 | 9.6 | 0.00 | 0.00 | 0.00 | 82 | 1005.5 |
| 20260509142005 | 59 | 236 | 3.5 | 10.4 | 0.00 | 0.00 | 0.00 | 82 | 1005.5 |
| 20260509141805 | 59 | 219 | 4.3 | 10.4 | 0.00 | 0.00 | 0.00 | 83 | 1005.5 |
| 20260509141605 | 58 | 211 | 4.3 | 10.4 | 0.00 | 0.00 | 0.00 | 83 | 1005.5 |
| 20260509141405 | 58 | 217 | 5.2 | 11.3 | 0.00 | 0.00 | 0.00 | 83 | 1005.5 |
| 20260509141204 | 58 | 212 | 4.3 | 11.3 | 0.00 | 0.00 | 0.00 | 84 | 1005.5 |
| 20260509141004 | 58 | 217 | 4.3 | 11.3 | 0.00 | 0.00 | 0.00 | 84 | 1005.5 |
| 20260509140804 | 58 | 206 | 7.0 | 11.3 | 0.00 | 0.00 | 0.00 | 84 | 1005.6 |
| 20260509140603 | 58 | 217 | 5.2 | 10.4 | 0.00 | 0.00 | 0.00 | 84 | 1005.5 |
| 20260509140403 | 58 | 226 | 4.3 | 10.4 | 0.00 | 0.00 | 0.00 | 85 | 1005.6 |
| 20260509140203 | 58 | 215 | 4.3 | 15.6 | 0.00 | 0.00 | 0.00 | 86 | 1005.6 |
| 20260509140003 | 57 | 215 | 3.5 | 15.6 | 0.00 | 0.00 | 0.00 | 87 | 1005.6 |
| 20260509135802 | 57 | 221 | 3.5 | 15.6 | 0.00 | 0.00 | 0.00 | 88 | 1005.7 |
| 20260509135602 | 56 | 217 | 5.2 | 15.6 | 0.00 | 0.00 | 0.00 | 88 | 1005.7 |
| 20260509135402 | 56 | 215 | 4.3 | 15.6 | 0.00 | 0.00 | 0.00 | 88 | 1005.7 |
| 20260509135201 | 56 | 224 | 3.5 | 13.9 | 0.00 | 0.00 | 0.00 | 89 | 1005.7 |
| 20260509135001 | 55 | 208 | 4.3 | 13.9 | 0.00 | 0.00 | 0.00 | 90 | 1005.7 |
| 20260509134801 | 55 | 219 | 4.3 | 13.9 | 0.00 | 0.00 | 0.00 | 90 | 1005.8 |
| 20260509134600 | 55 | 217 | 4.3 | 13.9 | 0.00 | 0.00 | 0.00 | 90 | 1005.8 |
| 20260509134400 | 55 | 220 | 4.3 | 13.9 | 0.00 | 0.00 | 0.00 | 90 | 1005.8 |
| 20260509134200 | 55 | 230 | 2.6 | 9.6 | 0.00 | 0.00 | 0.00 | 91 | 1005.9 |
| 20260509133959 | 54 | 227 | 1.7 | 12.2 | 0.00 | 0.00 | 0.00 | 92 | 1005.9 |
| 20260509133759 | 54 | 220 | 2.6 | 12.2 | 0.00 | 0.00 | 0.00 | 92 | 1006.0 |
| 20260509133559 | 54 | 228 | 4.3 | 12.2 | 0.00 | 0.00 | 0.00 | 92 | 1006.1 |
| 20260509133359 | 54 | 214 | 6.1 | 12.2 | 0.00 | 0.00 | 0.00 | 92 | 1006.0 |
| 20260509133158 | 54 | 215 | 5.2 | 12.2 | 0.00 | 0.00 | 0.00 | 92 | 1006.0 |
| 20260509132958 | 54 | 226 | 3.5 | 9.6 | 0.00 | 0.00 | 0.00 | 92 | 1006.0 |
| 20260509132758 | 54 | 219 | 4.3 | 9.6 | 0.00 | 0.00 | 0.00 | 92 | 1006.0 |
| 20260509132557 | 54 | 220 | 2.6 | 9.6 | 0.00 | 0.00 | 0.00 | 92 | 1006.1 |
| 20260509132357 | 54 | 224 | 3.5 | 8.7 | 0.00 | 0.00 | 0.00 | 92 | 1006.1 |
| 20260509132157 | 53 | 224 | 3.5 | 8.7 | 0.00 | 0.00 | 0.00 | 92 | 1006.1 |
| 20260509131956 | 53 | 229 | 2.6 | 9.6 | 0.00 | 0.00 | 0.00 | 92 | 1006.0 |
| 20260509131756 | 53 | 222 | 3.5 | 9.6 | 0.00 | 0.00 | 0.00 | 92 | 1006.0 |
| 20260509131556 | 53 | 207 | 3.5 | 10.4 | 0.00 | 0.00 | 0.00 | 93 | 1006.0 |
| 20260509131356 | 53 | 214 | 4.3 | 10.4 | 0.00 | 0.00 | 0.00 | 93 | 1006.1 |
| 20260509131155 | 53 | 219 | 3.5 | 10.4 | 0.00 | 0.00 | 0.00 | 93 | 1006.1 |
| 20260509130955 | 53 | 217 | 3.5 | 10.4 | 0.00 | 0.00 | 0.00 | 93 | 1006.1 |
| 20260509130755 | 53 | 223 | 3.5 | 10.4 | 0.00 | 0.00 | 0.00 | 93 | 1006.1 |
| 20260509130554 | 53 | 220 | 4.3 | 10.4 | 0.00 | 0.00 | 0.00 | 93 | 1006.1 |
| 20260509130354 | 53 | 214 | 4.3 | 8.7 | 0.00 | 0.00 | 0.00 | 93 | 1006.1 |
| 20260509130154 | 53 | 216 | 1.7 | 10.4 | 0.00 | 0.00 | 0.00 | 94 | 1006.2 |
| 20260509125953 | 53 | 217 | 2.6 | 10.4 | 0.00 | 0.00 | 0.00 | 94 | 1006.1 |
| 20260509125753 | 53 | 213 | 3.5 | 10.4 | 0.00 | 0.00 | 0.00 | 94 | 1006.1 |
| 20260509125553 | 52 | 216 | 2.6 | 10.4 | 0.00 | 0.00 | 0.00 | 94 | 1006.1 |
| 20260509125353 | 52 | 228 | 3.5 | 10.4 | 0.00 | 0.00 | 0.00 | 94 | 1006.1 |
| 20260509125152 | 52 | 220 | 3.5 | 10.4 | 0.00 | 0.00 | 0.00 | 94 | 1006.2 |
| 20260509124952 | 52 | 197 | 2.6 | 6.1 | 0.00 | 0.00 | 0.00 | 94 | 1006.2 |
| 20260509124752 | 52 | 223 | 2.6 | 6.1 | 0.00 | 0.00 | 0.00 | 94 | 1006.3 |
| 20260509124551 | 52 | 248 | 1.7 | 6.1 | 0.00 | 0.00 | 0.00 | 94 | 1006.4 |
| 20260509124351 | 52 | 207 | 1.7 | 6.1 | 0.00 | 0.00 | 0.00 | 94 | 1006.4 |
| 20260509124151 | 52 | 214 | 1.7 | 6.1 | 0.00 | 0.00 | 0.00 | 94 | 1006.4 |
| 20260509123950 | 52 | 208 | 1.7 | 6.1 | 0.00 | 0.00 | 0.00 | 94 | 1006.3 |
| 20260509123750 | 52 | 207 | 2.6 | 6.1 | 0.00 | 0.00 | 0.00 | 94 | 1006.3 |
| 20260509123550 | 52 | 218 | 2.6 | 8.7 | 0.00 | 0.00 | 0.00 | 94 | 1006.3 |
| 20260509123350 | 52 | 212 | 1.7 | 9.6 | 0.00 | 0.00 | 0.00 | 94 | 1006.2 |
| 20260509123149 | 52 | 206 | 0.9 | 9.6 | 0.00 | 0.00 | 0.00 | 94 | 1006.2 |
| 20260509122949 | 52 | 222 | 0.9 | 9.6 | 0.00 | 0.00 | 0.00 | 94 | 1006.2 |
| 20260509122749 | 52 | 189 | 1.7 | 9.6 | 0.00 | 0.00 | 0.00 | 94 | 1006.1 |
| 20260509122548 | 52 | 250 | 1.7 | 9.6 | 0.00 | 0.00 | 0.00 | 94 | 1006.0 |
| 20260509122348 | 52 | 215 | 3.5 | 7.8 | 0.00 | 0.00 | 0.00 | 94 | 1006.1 |
| 20260509122148 | 52 | 214 | 3.5 | 7.8 | 0.00 | 0.00 | 0.00 | 94 | 1006.0 |
| 20260509121947 | 52 | 224 | 2.6 | 6.1 | 0.00 | 0.00 | 0.00 | 95 | 1006.1 |
| 20260509121747 | 52 | 225 | 2.6 | 6.1 | 0.00 | 0.00 | 0.00 | 95 | 1006.0 |
| 20260509121547 | 52 | 222 | 1.7 | 6.1 | 0.00 | 0.00 | 0.00 | 95 | 1006.0 |
| 20260509121347 | 51 | 218 | 2.6 | 6.1 | 0.00 | 0.00 | 0.00 | 95 | 1006.1 |
| 20260509121146 | 51 | 206 | 1.7 | 6.1 | 0.00 | 0.00 | 0.00 | 95 | 1006.1 |
| 20260509120946 | 51 | 214 | 2.6 | 6.1 | 0.00 | 0.00 | 0.00 | 95 | 1006.0 |
| 20260509120746 | 51 | 229 | 2.6 | 6.1 | 0.00 | 0.00 | 0.00 | 95 | 1006.0 |
| 20260509120545 | 51 | 221 | 1.7 | 6.1 | 0.00 | 0.00 | 0.00 | 96 | 1006.1 |
| 20260509120345 | 51 | 217 | 1.7 | 6.1 | 0.00 | 0.00 | 0.00 | 96 | 1006.1 |
| 20260509120145 | 51 | 227 | 1.7 | 6.1 | 0.00 | 0.00 | 0.00 | 96 | 1006.1 |
| 20260509115944 | 51 | 235 | 0.9 | 6.1 | 0.00 | 0.00 | 0.00 | 96 | 1006.2 |
| 20260509115744 | 51 | 235 | 1.7 | 6.1 | 0.00 | 0.00 | 0.00 | 96 | 1006.1 |
| 20260509115544 | 50 | 239 | 1.7 | 6.1 | 0.00 | 0.00 | 0.00 | 96 | 1006.2 |
| 20260509115344 | 50 | 226 | 1.7 | 6.1 | 0.00 | 0.00 | 0.00 | 96 | 1006.2 |
| 20260509115143 | 50 | 230 | 2.6 | 6.1 | 0.00 | 0.00 | 0.00 | 96 | 1006.2 |
| 20260509114943 | 50 | 222 | 2.6 | 6.1 | 0.00 | 0.00 | 0.00 | 96 | 1006.1 |
| 20260509114743 | 50 | 222 | 1.7 | 6.1 | 0.00 | 0.00 | 0.00 | 96 | 1006.1 |
| 20260509114542 | 50 | 221 | 0.9 | 6.1 | 0.00 | 0.00 | 0.00 | 96 | 1006.2 |
| 20260509114342 | 50 | 229 | 1.7 | 7.0 | 0.00 | 0.00 | 0.00 | 96 | 1006.2 |
| 20260509114142 | 50 | 238 | 0.9 | 7.0 | 0.00 | 0.00 | 0.00 | 96 | 1006.2 |
| 20260509113941 | 50 | 227 | 0.9 | 7.0 | 0.00 | 0.00 | 0.00 | 96 | 1006.1 |
| 20260509113741 | 50 | 223 | 1.7 | 7.0 | 0.00 | 0.00 | 0.00 | 96 | 1006.2 |
| 20260509113541 | 50 | 229 | 0.9 | 7.0 | 0.00 | 0.00 | 0.00 | 96 | 1006.1 |
| 20260509113341 | 50 | 234 | 1.7 | 6.1 | 0.00 | 0.00 | 0.00 | 96 | 1006.2 |
| 20260509113140 | 50 | 225 | 1.7 | 6.1 | 0.00 | 0.00 | 0.00 | 96 | 1006.2 |
| 20260509112940 | 49 | 232 | 0.9 | 4.3 | 0.00 | 0.00 | 0.00 | 96 | 1006.2 |
| 20260509112740 | 49 | 243 | 0.9 | 6.1 | 0.00 | 0.00 | 0.00 | 96 | 1006.2 |
| 20260509112539 | 49 | 230 | 1.7 | 6.1 | 0.00 | 0.00 | 0.00 | 96 | 1006.2 |
| 20260509112339 | 49 | 223 | 1.7 | 6.1 | 0.00 | 0.00 | 0.00 | 96 | 1006.2 |
| 20260509112139 | 49 | 226 | 2.6 | 6.1 | 0.00 | 0.00 | 0.00 | 96 | 1006.2 |
| 20260509111938 | 49 | 222 | 2.6 | 6.1 | 0.00 | 0.00 | 0.00 | 96 | 1006.2 |
| 20260509111738 | 49 | 229 | 1.7 | 5.2 | 0.00 | 0.00 | 0.00 | 96 | 1006.2 |
| 20260509111538 | 49 | 228 | 0.9 | 6.1 | 0.00 | 0.00 | 0.00 | 96 | 1006.1 |
| 20260509111337 | 49 | 218 | 2.6 | 7.0 | 0.00 | 0.00 | 0.00 | 96 | 1006.1 |
| 20260509111137 | 49 | 211 | 1.7 | 7.8 | 0.00 | 0.00 | 0.00 | 96 | 1006.1 |
| 20260509110937 | 49 | 203 | 1.7 | 8.7 | 0.00 | 0.00 | 0.00 | 96 | 1006.1 |
| 20260509110737 | 49 | 194 | 2.6 | 8.7 | 0.00 | 0.00 | 0.00 | 96 | 1006.1 |
| 20260509110536 | 49 | 215 | 3.5 | 8.7 | 0.00 | 0.00 | 0.00 | 96 | 1006.0 |
| 20260509110336 | 49 | 206 | 2.6 | 8.7 | 0.00 | 0.00 | 0.00 | 96 | 1006.0 |
| 20260509110136 | 49 | 215 | 2.6 | 8.7 | 0.00 | 0.00 | 0.00 | 96 | 1006.0 |
| 20260509105935 | 49 | 210 | 3.5 | 8.7 | 0.00 | 0.02 | 0.00 | 96 | 1006.0 |
| 20260509105735 | 49 | 219 | 4.3 | 8.7 | 0.00 | 0.02 | 0.00 | 96 | 1005.9 |
| 20260509105535 | 48 | 204 | 2.6 | 7.0 | 0.00 | 0.02 | 0.00 | 96 | 1005.9 |
| 20260509105334 | 48 | 202 | 2.6 | 7.0 | 0.00 | 0.02 | 0.00 | 96 | 1006.0 |
| 20260509105134 | 48 | 210 | 2.6 | 7.8 | 0.00 | 0.02 | 0.00 | 96 | 1005.9 |
| 20260509104934 | 48 | 221 | 2.6 | 7.8 | 0.00 | 0.02 | 0.00 | 96 | 1005.9 |
| 20260509104734 | 48 | 225 | 3.5 | 7.8 | 0.00 | 0.02 | 0.00 | 96 | 1005.8 |
| 20260509104533 | 48 | 218 | 3.5 | 7.8 | 0.00 | 0.02 | 0.00 | 96 | 1005.9 |
| 20260509104333 | 48 | 222 | 3.5 | 7.8 | 0.00 | 0.02 | 0.00 | 96 | 1005.9 |
| 20260509104133 | 48 | 215 | 2.6 | 6.1 | 0.00 | 0.02 | 0.00 | 96 | 1005.9 |
| 20260509103932 | 48 | 218 | 1.7 | 6.1 | 0.00 | 0.02 | 0.00 | 96 | 1005.9 |
| 20260509103732 | 48 | 231 | 1.7 | 6.1 | 0.00 | 0.02 | 0.00 | 96 | 1005.9 |
| 20260509103532 | 48 | 225 | 2.6 | 6.1 | 0.00 | 0.02 | 0.00 | 96 | 1005.9 |
| 20260509103331 | 48 | 212 | 2.6 | 7.0 | 0.00 | 0.02 | 0.00 | 96 | 1005.9 |
| 20260509103131 | 48 | 222 | 2.6 | 7.0 | 0.00 | 0.02 | 0.00 | 96 | 1006.0 |
| 20260509102931 | 48 | 213 | 3.5 | 7.0 | 0.00 | 0.02 | 0.00 | 96 | 1006.0 |
| 20260509102731 | 48 | 217 | 3.5 | 7.0 | 0.00 | 0.02 | 0.00 | 96 | 1005.9 |
| 20260509102530 | 48 | 216 | 3.5 | 7.0 | 0.00 | 0.02 | 0.00 | 96 | 1006.0 |
| 20260509102330 | 48 | 217 | 2.6 | 7.0 | 0.00 | 0.02 | 0.00 | 96 | 1006.1 |
| 20260509102130 | 48 | 215 | 1.7 | 7.8 | 0.00 | 0.02 | 0.00 | 95 | 1006.1 |
| 20260509101929 | 48 | 224 | 2.6 | 7.8 | 0.00 | 0.02 | 0.00 | 95 | 1006.1 |
| 20260509101729 | 48 | 210 | 3.5 | 7.8 | 0.00 | 0.02 | 0.00 | 95 | 1006.2 |
| 20260509101529 | 48 | 211 | 3.5 | 7.8 | 0.00 | 0.02 | 0.00 | 95 | 1006.2 |
| 20260509101328 | 48 | 206 | 3.5 | 7.8 | 0.00 | 0.02 | 0.00 | 95 | 1006.1 |
| 20260509101128 | 48 | 212 | 2.6 | 7.8 | 0.00 | 0.02 | 0.00 | 95 | 1006.1 |
| 20260509100928 | 48 | 220 | 2.6 | 5.2 | 0.00 | 0.02 | 0.00 | 95 | 1006.1 |
| 20260509100728 | 48 | 215 | 2.6 | 7.8 | 0.00 | 0.02 | 0.00 | 95 | 1006.2 |
| 20260509100527 | 48 | 209 | 1.7 | 7.8 | 0.00 | 0.02 | 0.00 | 95 | 1006.2 |
| 20260509100327 | 48 | 235 | 1.7 | 7.8 | 0.00 | 0.02 | 0.00 | 95 | 1006.1 |
| 20260509100127 | 48 | 228 | 3.5 | 7.8 | 0.00 | 0.02 | 0.00 | 95 | 1006.1 |
| 20260509095926 | 48 | 222 | 3.5 | 7.8 | 0.00 | 0.04 | 0.00 | 95 | 1006.1 |
| 20260509095726 | 48 | 218 | 2.6 | 7.0 | 0.00 | 0.04 | 0.00 | 94 | 1006.2 |
| 20260509095526 | 48 | 211 | 3.5 | 7.8 | 0.00 | 0.04 | 0.00 | 94 | 1006.2 |
| 20260509095325 | 48 | 215 | 3.5 | 7.8 | 0.00 | 0.04 | 0.00 | 94 | 1006.3 |
| 20260509095125 | 48 | 209 | 4.3 | 7.8 | 0.00 | 0.04 | 0.00 | 94 | 1006.3 |
| 20260509094925 | 48 | 210 | 4.3 | 7.8 | 0.00 | 0.04 | 0.00 | 94 | 1006.3 |
| 20260509094725 | 48 | 207 | 3.5 | 7.8 | 0.00 | 0.04 | 0.00 | 94 | 1006.3 |
| 20260509094524 | 49 | 206 | 3.5 | 8.7 | 0.00 | 0.04 | 0.00 | 94 | 1006.3 |
| 20260509094324 | 48 | 210 | 2.6 | 13.0 | 0.00 | 0.04 | 0.00 | 94 | 1006.3 |
| 20260509094124 | 48 | 218 | 3.5 | 13.0 | 0.00 | 0.04 | 0.00 | 94 | 1006.3 |
| 20260509093923 | 48 | 222 | 4.3 | 13.0 | 0.00 | 0.04 | 0.00 | 94 | 1006.3 |
| 20260509093723 | 48 | 219 | 3.5 | 13.0 | 0.00 | 0.04 | 0.00 | 94 | 1006.3 |
| 20260509093523 | 48 | 213 | 4.3 | 13.0 | 0.00 | 0.04 | 0.00 | 94 | 1006.2 |
| 20260509093322 | 48 | 214 | 3.5 | 13.0 | 0.00 | 0.04 | 0.00 | 94 | 1006.2 |
| 20260509093122 | 48 | 203 | 4.3 | 9.6 | 0.00 | 0.04 | 0.00 | 94 | 1006.3 |
| 20260509092922 | 48 | 208 | 3.5 | 8.7 | 0.00 | 0.04 | 0.00 | 94 | 1006.2 |
| 20260509092722 | 48 | 206 | 3.5 | 8.7 | 0.00 | 0.04 | 0.00 | 94 | 1006.3 |
| 20260509092521 | 48 | 205 | 4.3 | 8.7 | 0.00 | 0.04 | 0.00 | 94 | 1006.2 |
| 20260509092321 | 48 | 212 | 4.3 | 9.6 | 0.00 | 0.04 | 0.00 | 94 | 1006.3 |
| 20260509092121 | 48 | 227 | 3.5 | 9.6 | 0.00 | 0.04 | 0.00 | 94 | 1006.2 |
| 20260509091920 | 48 | 219 | 2.6 | 9.6 | 0.00 | 0.04 | 0.00 | 94 | 1006.3 |
| 20260509091720 | 48 | 218 | 4.3 | 9.6 | 0.00 | 0.04 | 0.00 | 93 | 1006.2 |
| 20260509091520 | 48 | 217 | 4.3 | 9.6 | 0.00 | 0.04 | 0.00 | 93 | 1006.2 |
| 20260509091319 | 48 | 217 | 3.5 | 8.7 | 0.00 | 0.04 | 0.00 | 93 | 1006.2 |
| 20260509091119 | 48 | 213 | 4.3 | 8.7 | 0.00 | 0.04 | 0.00 | 93 | 1006.3 |
| 20260509090919 | 48 | 227 | 3.5 | 10.4 | 0.00 | 0.04 | 0.00 | 93 | 1006.2 |
| 20260509090719 | 48 | 218 | 3.5 | 11.3 | 0.00 | 0.04 | 0.00 | 93 | 1006.2 |
| 20260509090518 | 48 | 210 | 4.3 | 11.3 | 0.00 | 0.04 | 0.00 | 93 | 1006.3 |
| 20260509090318 | 48 | 204 | 5.2 | 11.3 | 0.00 | 0.04 | 0.00 | 93 | 1006.4 |
| 20260509090118 | 48 | 213 | 5.2 | 11.3 | 0.00 | 0.04 | 0.00 | 93 | 1006.4 |
| 20260509085917 | 48 | 222 | 4.3 | 10.4 | 0.00 | 0.05 | 0.00 | 92 | 1006.4 |
| 20260509085717 | 48 | 221 | 4.3 | 9.6 | 0.00 | 0.05 | 0.00 | 92 | 1006.3 |
| 20260509085517 | 48 | 203 | 4.3 | 9.6 | 0.00 | 0.05 | 0.00 | 92 | 1006.3 |
| 20260509085316 | 48 | 215 | 5.2 | 9.6 | 0.00 | 0.05 | 0.00 | 92 | 1006.4 |
| 20260509085116 | 48 | 214 | 4.3 | 9.6 | 0.00 | 0.05 | 0.00 | 91 | 1006.4 |
| 20260509084916 | 47 | 213 | 3.5 | 8.7 | 0.00 | 0.05 | 0.00 | 91 | 1006.3 |
| 20260509084716 | 47 | 210 | 3.5 | 13.0 | 0.00 | 0.05 | 0.00 | 90 | 1006.4 |
| 20260509084515 | 47 | 217 | 2.6 | 13.0 | 0.00 | 0.05 | 0.00 | 90 | 1006.4 |
| 20260509084315 | 47 | 211 | 3.5 | 13.0 | 0.00 | 0.05 | 0.00 | 90 | 1006.5 |
| 20260509084115 | 47 | 219 | 2.6 | 13.0 | 0.00 | 0.05 | 0.00 | 89 | 1006.6 |
| 20260509083914 | 47 | 220 | 3.5 | 13.0 | 0.00 | 0.05 | 0.00 | 89 | 1006.7 |
| 20260509083714 | 47 | 218 | 2.6 | 10.4 | 0.00 | 0.05 | 0.00 | 89 | 1006.7 |
| 20260509083514 | 47 | 209 | 4.3 | 10.4 | 0.00 | 0.05 | 0.00 | 89 | 1006.7 |
| 20260509083313 | 47 | 200 | 4.3 | 10.4 | 0.00 | 0.05 | 0.00 | 88 | 1006.8 |
| 20260509083113 | 47 | 211 | 4.3 | 10.4 | 0.00 | 0.05 | 0.00 | 88 | 1006.8 |
| 20260509082913 | 47 | 213 | 4.3 | 10.4 | 0.00 | 0.05 | 0.00 | 88 | 1006.7 |
| 20260509082713 | 47 | 203 | 3.5 | 9.6 | 0.00 | 0.05 | 0.00 | 88 | 1006.7 |
| 20260509082512 | 47 | 209 | 4.3 | 9.6 | 0.00 | 0.05 | 0.00 | 87 | 1006.7 |
| 20260509082312 | 47 | 221 | 4.3 | 9.6 | 0.00 | 0.05 | 0.00 | 87 | 1006.7 |
| 20260509082112 | 47 | 210 | 5.2 | 9.6 | 0.00 | 0.05 | 0.00 | 87 | 1006.7 |
| 20260509081911 | 47 | 199 | 5.2 | 9.6 | 0.00 | 0.05 | 0.00 | 87 | 1006.8 |
| 20260509081711 | 47 | 213 | 4.3 | 8.7 | 0.00 | 0.05 | 0.00 | 87 | 1006.7 |
| 20260509081511 | 47 | 215 | 3.5 | 8.7 | 0.00 | 0.05 | 0.00 | 86 | 1006.7 |
| 20260509081310 | 47 | 224 | 3.5 | 8.7 | 0.00 | 0.05 | 0.00 | 86 | 1006.8 |
| 20260509081110 | 47 | 212 | 2.6 | 8.7 | 0.00 | 0.05 | 0.00 | 86 | 1006.9 |
| 20260509080910 | 47 | 210 | 1.7 | 5.2 | 0.00 | 0.05 | 0.00 | 85 | 1006.9 |
| 20260509080710 | 47 | 229 | 1.7 | 8.7 | 0.00 | 0.05 | 0.00 | 84 | 1006.9 |
| 20260509080509 | 47 | 223 | 1.7 | 8.7 | 0.00 | 0.05 | 0.00 | 84 | 1006.9 |
| 20260509080309 | 47 | 202 | 0.9 | 8.7 | 0.00 | 0.05 | 0.00 | 83 | 1006.9 |
| 20260509080109 | 47 | 209 | 1.7 | 8.7 | 0.00 | 0.05 | 0.00 | 83 | 1006.9 |
| 20260509075908 | 47 | 224 | 2.6 | 8.7 | 0.00 | 0.05 | 0.00 | 82 | 1007.0 |
| 20260509075708 | 47 | 220 | 2.6 | 8.7 | 0.00 | 0.05 | 0.00 | 82 | 1007.0 |
| 20260509075508 | 47 | 193 | 1.7 | 6.1 | 0.00 | 0.05 | 0.00 | 82 | 1006.9 |
| 20260509075307 | 47 | 212 | 2.6 | 6.1 | 0.00 | 0.05 | 0.00 | 82 | 1006.9 |
| 20260509075107 | 47 | 201 | 2.6 | 6.1 | 0.00 | 0.05 | 0.00 | 82 | 1006.9 |
| 20260509074907 | 47 | 215 | 3.5 | 8.7 | 0.00 | 0.05 | 0.00 | 82 | 1006.9 |
| 20260509074706 | 47 | 213 | 3.5 | 8.7 | 0.00 | 0.05 | 0.00 | 82 | 1006.9 |
| 20260509074506 | 47 | 210 | 4.3 | 8.7 | 0.00 | 0.05 | 0.00 | 81 | 1006.9 |
| 20260509074306 | 47 | 215 | 4.3 | 8.7 | 0.00 | 0.05 | 0.00 | 81 | 1006.9 |
| 20260509074106 | 47 | 223 | 3.5 | 8.7 | 0.00 | 0.05 | 0.00 | 81 | 1006.9 |
| 20260509073905 | 47 | 213 | 3.5 | 8.7 | 0.00 | 0.05 | 0.00 | 80 | 1006.8 |
| 20260509073705 | 47 | 214 | 3.5 | 8.7 | 0.00 | 0.05 | 0.00 | 80 | 1006.8 |
| 20260509073505 | 47 | 214 | 3.5 | 10.4 | 0.00 | 0.05 | 0.00 | 79 | 1006.8 |
| 20260509073304 | 47 | 217 | 3.5 | 10.4 | 0.00 | 0.05 | 0.00 | 79 | 1006.8 |
| 20260509073104 | 47 | 210 | 3.5 | 10.4 | 0.00 | 0.05 | 0.00 | 79 | 1006.9 |
| 20260509072904 | 47 | 202 | 4.3 | 10.4 | 0.00 | 0.05 | 0.00 | 78 | 1006.9 |
| 20260509072703 | 47 | 215 | 4.3 | 10.4 | 0.00 | 0.05 | 0.00 | 78 | 1007.0 |
| 20260509072503 | 47 | 219 | 4.3 | 9.6 | 0.00 | 0.05 | 0.00 | 78 | 1006.9 |
| 20260509072306 | 47 | 221 | 4.3 | 7.8 | 0.00 | 0.05 | 0.00 | 78 | 1006.9 |
| 20260509072103 | 47 | 217 | 3.5 | 7.8 | 0.00 | 0.05 | 0.00 | 77 | 1006.9 |
| 20260509071902 | 47 | 214 | 3.5 | 7.0 | 0.00 | 0.05 | 0.00 | 77 | 1006.9 |
| 20260509071702 | 47 | 204 | 2.6 | 7.0 | 0.00 | 0.05 | 0.00 | 77 | 1006.9 |
| 20260509071502 | 47 | 213 | 3.5 | 7.0 | 0.00 | 0.05 | 0.00 | 76 | 1007.0 |
| 20260509071301 | 47 | 210 | 3.5 | 7.0 | 0.00 | 0.05 | 0.00 | 76 | 1007.0 |
| 20260509071101 | 47 | 212 | 3.5 | 6.1 | 0.00 | 0.05 | 0.00 | 76 | 1006.9 |
| 20260509070901 | 47 | 214 | 2.6 | 7.0 | 0.00 | 0.05 | 0.00 | 75 | 1006.9 |
| 20260509070700 | 47 | 220 | 2.6 | 7.0 | 0.00 | 0.05 | 0.00 | 75 | 1006.9 |
| 20260509070500 | 47 | 222 | 1.7 | 7.0 | 0.00 | 0.05 | 0.00 | 75 | 1006.9 |
| 20260509070300 | 47 | 227 | 2.6 | 7.0 | 0.00 | 0.05 | 0.00 | 74 | 1006.9 |
| 20260509070100 | 47 | 212 | 3.5 | 7.0 | 0.00 | 0.05 | 0.00 | 74 | 1006.9 |
| 20260509065859 | 47 | 208 | 3.5 | 7.0 | 0.00 | 0.05 | 0.00 | 73 | 1007.0 |
| 20260509065659 | 47 | 218 | 3.5 | 7.0 | 0.00 | 0.05 | 0.00 | 73 | 1006.9 |
| 20260509065459 | 47 | 209 | 2.6 | 10.4 | 0.00 | 0.05 | 0.00 | 72 | 1006.9 |
| 20260509065258 | 47 | 220 | 2.6 | 10.4 | 0.00 | 0.05 | 0.00 | 72 | 1006.9 |
| 20260509065058 | 47 | 222 | 3.5 | 10.4 | 0.00 | 0.05 | 0.00 | 71 | 1007.0 |
| 20260509064858 | 47 | 226 | 3.5 | 10.4 | 0.00 | 0.05 | 0.00 | 71 | 1006.9 |
| 20260509064657 | 47 | 213 | 3.5 | 10.4 | 0.00 | 0.05 | 0.00 | 71 | 1007.0 |
| 20260509064457 | 47 | 217 | 3.5 | 10.4 | 0.00 | 0.05 | 0.00 | 71 | 1007.0 |
| 20260509064257 | 47 | 227 | 2.6 | 7.8 | 0.00 | 0.05 | 0.00 | 71 | 1007.0 |
| 20260509064057 | 47 | 229 | 1.7 | 7.8 | 0.00 | 0.05 | 0.00 | 70 | 1007.0 |
| 20260509063856 | 47 | 229 | 1.7 | 5.2 | 0.00 | 0.05 | 0.00 | 70 | 1007.0 |
| 20260509063656 | 47 | 235 | 1.7 | 3.5 | 0.00 | 0.05 | 0.00 | 70 | 1007.1 |
| 20260509063456 | 47 | 233 | 0.9 | 2.6 | 0.00 | 0.05 | 0.00 | 70 | 1007.1 |
| 20260509063255 | 47 | 234 | 0.9 | 5.2 | 0.00 | 0.05 | 0.00 | 69 | 1007.1 |
| 20260509063055 | 47 | 234 | 0.0 | 6.1 | 0.00 | 0.05 | 0.00 | 69 | 1007.1 |
| 20260509062855 | 47 | 234 | 0.0 | 6.1 | 0.00 | 0.05 | 0.00 | 69 | 1007.1 |
| 20260509062654 | 47 | 231 | 1.7 | 6.1 | 0.00 | 0.05 | 0.00 | 68 | 1007.2 |
| 20260509062454 | 47 | 225 | 1.7 | 6.1 | 0.00 | 0.05 | 0.00 | 68 | 1007.1 |
| 20260509062254 | 47 | 223 | 0.9 | 6.1 | 0.00 | 0.05 | 0.00 | 68 | 1007.2 |
| 20260509062054 | 47 | 215 | 0.0 | 2.6 | 0.00 | 0.05 | 0.00 | 68 | 1007.2 |
| 20260509061853 | 47 | 215 | 0.0 | 2.6 | 0.00 | 0.05 | 0.00 | 68 | 1007.2 |
| 20260509061653 | 47 | 215 | 0.0 | 3.5 | 0.00 | 0.05 | 0.00 | 68 | 1007.3 |
| 20260509061453 | 47 | 217 | 0.9 | 4.3 | 0.00 | 0.05 | 0.00 | 68 | 1007.3 |